Weather in Truckee

United States     39°19′40″N   120°10′59″W
temp.,
°C
wind,
m/s
gust,
m/s
humid.,
%
clouds,
%
prec.,
mm/h
press.,
hPa
HPBL,
m
7 may, fri
fri723:00+3sw226192 0.0 101821
02:00+3sw22562 0.0 101716
05:00+2ssw22570 0.0 101613
08:00+8sw38395 0.0 1015810
11:00+13sw68170 0.0 10131554
14:00+14wsw68180 0.0 10131809
17:00+12w67310 0.0 10141671
20:00+4wsw21490 0.0 101614
8 may, sat
sat823:00+2nne22553 0.0 102018
02:00−1ne22470 0.0 102227
05:00−3ene22550 0.0 102436
08:00+4ene34300 0.0 1020375
11:00+12ene35175 0.0 10171211
14:00+16ene24153 0.0 10142157
17:00+16nne34174 0.0 10122541
20:00+6nne113676 0.0 101510
9 may, sun
sun923:00+4ne2241100 0.0 101719
02:00+2ne22535 0.0 101721
05:000ene22675 0.0 101723
08:00+6ene234952 0.0 1014415
11:00+14e23285 0.0 10111963
14:00+17wnw362293 0.0 10083354
17:00+15wnw552594 0.0 10082693
20:00+8nnw224786 0.0 101123
10 may, mon
mon1023:00+3nne22530 0.0 101434
02:00+1ene22640 0.0 101623
05:00−1ene22690 0.0 101725
08:00+6ene23430 0.0 1014534
11:00+12e34230 0.0 10121668
14:00+15ne35150 0.0 10102339
17:00+14nne54181 0.0 10111952
20:00+6ne35340 0.0 1015104
11 may, tue
tue1123:00+2ene32421 0.0 101837
02:00+1e33481 0.0 101940
05:000e32500 0.0 102038
08:00+7e34325 0.0 1018522
11:00+14ese22195 0.0 10151125
14:00+19se24153 0.0 10132239
17:00+18w45180 0.0 10122464
20:00+9w11450 0.0 101611